RH
41 57 61 79 90 49 35 32 31 33 35 31 37 51 57 67 61 85 54 55 57 70 67 76 76 81 83 94 68 82 96 96 97 97 98 95 96 95 96 97 95 94 91 94 92 94 95 96 90
45 48 72 91 85 41 39 32 35 26 25 39 31 36 42 53 43 55 53 58 59 65 73 76 77 81 84 94 85 96 96 96 96 97 96 96 96 96 94 93 93 94 91 96 94 92 96 96 94
64 50 87 98 54 45 39 29 28 28 27 24 30 30 37 47 39 41 44 47 53 62 69 64 73 93 79 90 88 95 96 94 88 91 90 95 96 93 88 93 93 91 91 93 96 91 92 94 74
48 40 52 72 37 28 30 27 23 32 26 23 26 36 35 34 36 42 56 56 63 65 73 74 74 91 80 79 77 92 95 92 91 96 93 81 95 96 93 94 92 93 96 92 93 94 96 87 63
39 55 94 50 40 29 22 23 32 59 29 28 26 35 42 33 39 47 58 61 59 59 72 82 85 91 94 77 75 79 92 92 96 96 92 92 92 94 92 93 93 94 92 90 87 85 84 59 54
65 77 89 53 32 26 29 29 33 38 48 30 30 36 36 30 42 42 55 58 51 53 64 80 93 90 92 85 78 94 96 96 95 93 91 93 91 91 93 93 93 92 94 93 92 79 68 49 40
88 97 62 47 35 32 31 25 30 32 39 30 30 37 32 30 44 41 38 50 52 48 59 75 85 94 95 96 95 96 96 96 95 92 94 86 91 86 87 92 91 91 90 85 78 71 68 63 55
82 91 71 35 58 39 33 28 24 28 34 24 26 36 39 32 33 39 39 53 54 46 48 60 74 81 85 90 95 96 94 76 78 74 59 44 60 74 67 68 82 88 86 68 63 57 58 56 38
35 85 80 60 44 30 22 28 26 21 24 35 51 29 28 29 32 39 33 43 42 47 51 56 62 72 76 87 92 94 77 56 69 76 59 74 73 71 76 69 62 62 60 56 51 53 57 51 47
64 88 83 65 53 34 30 26 24 24 27 34 33 29 27 28 30 33 30 31 38 56 72 58 74 67 66 65 79 77 75 61 59 68 67 69 65 50 52 44 51 53 52 48 45 52 56 57 63
68 82 56 54 54 39 27 24 20 24 32 38 47 31 29 28 34 28 30 32 47 52 40 88 45 67 65 66 72 69 66 66 57 58 64 62 58 53 58 43 44 46 48 46 49 53 54 60 58
64 43 46 46 67 38 31 27 38 34 28 30 29 27 29 29 34 26 27 38 44 60 65 66 59 66 63 66 66 58 62 47 52 55 60 55 37 58 58 62 56 53 52 51 51 52 52 46 43
71 44 39 36 43 49 37 28 33 28 24 24 26 27 30 32 27 31 28 39 41 52 53 57 62 63 67 36 70 52 46 46 52 51 63 58 54 51 49 53 53 51 41 46 47 50 48 43 40
70 42 43 44 51 43 76 46 32 26 24 27 26 29 29 33 28 32 28 30 37 40 50 58 58 56 66 61 60 52 47 46 48 54 57 56 50 54 49 55 49 42 45 47 44 48 46 44 38
39 50 44 42 48 50 56 68 38 25 24 27 27 28 29 30 40 30 29 33 35 46 52 55 56 63 58 55 46 54 40 43 52 58 52 58 56 52 57 57 52 48 47 47 45 46 44 34 37
38 46 56 43 53 42 50 81 42 25 24 25 26 27 32 42 38 30 32 34 35 41 47 53 55 60 57 53 53 55 42 49 44 51 57 57 66 60 58 60 71 68 52 61 48 44 41 32 35
65 62 66 56 45 53 51 51 69 54 25 24 27 32 30 41 37 35 33 35 38 43 47 49 52 55 55 51 53 55 49 56 54 51 54 56 58 60 65 78 71 53 50 68 61 40 36 33 35
66 62 72 72 51 50 56 51 71 49 67 25 24 32 32 33 40 36 37 39 43 45 47 51 51 55 55 56 55 56 42 51 54 49 55 54 59 56 54 79 36 32 64 55 70 50 47 36 34
27 40 66 62 46 48 53 52 68 66 63 39 32 32 29 35 32 33 34 34 44 45 46 57 54 53 52 55 56 59 55 54 50 60 58 61 60 56 62 67 36 46 58 73 54 53 54 49 41
19 25 56 52 44 47 63 64 78 76 74 51 37 27 28 29 29 33 35 33 40 46 47 58 57 58 58 55 61 60 52 52 47 56 58 50 56 56 65 71 82 56 71 77 61 59 65 58 61
16 18 36 49 49 45 56 68 64 58 65 82 47 29 25 30 30 29 33 34 38 46 51 55 64 69 60 65 64 57 55 60 55 51 59 57 54 57 59 63 63 64 74 49 59 62 50 24 42
15 25 26 30 52 58 47 61 65 55 63 92 72 38 26 31 30 27 29 30 35 44 48 58 63 67 62 68 67 62 51 56 50 50 53 57 56 58 56 58 62 66 68 66 65 62 63 63 74
14 18 20 22 24 53 58 58 64 82 70 89 83 62 37 30 26 30 28 30 34 40 43 58 58 58 59 65 67 61 55 56 57 59 56 61 58 58 59 59 61 65 66 67 64 64 62 59 65
11 16 21 20 21 34 38 48 73 83 78 69 60 36 35 31 26 28 25 30 33 40 41 53 63 62 63 67 63 58 65 71 59 66 60 53 57 60 54 60 61 66 67 69 70 68 68 66 63
11 15 23 24 26 39 50 51 66 61 59 62 47 38 39 34 28 27 26 28 32 37 41 56 64 69 70 72 72 70 68 65 65 61 52 54 56 58 61 60 67 66 68 70 66 67 67 65 64
14 14 21 40 54 60 58 73 67 46 38 31 51 36 36 31 30 25 26 30 32 37 40 52 67 71 70 70 72 70 68 66 63 60 54 55 53 65 69 70 65 68 68 65 66 66 63 64 62
12 20 22 46 59 55 48 73 79 57 37 36 34 67 39 39 30 27 28 31 32 38 37 48 66 70 70 68 70 68 70 69 61 58 60 58 52 69 52 50 67 64 68 67 64 62 57 58 66
14 20 28 28 45 40 70 79 89 66 65 58 39 40 42 66 61 26 25 27 31 35 38 41 62 66 67 63 66 69 70 67 67 68 61 68 66 59 83 74 70 64 66 69 69 70 65 66 62
37 35 32 23 32 65 70 78 78 85 80 50 40 37 50 70 67 33 29 25 30 30 37 40 51 62 62 61 62 60 66 67 68 69 69 66 67 65 68 69 73 72 69 70 72 69 64 66 72
46 67 36 41 62 78 61 68 43 43 38 40 40 47 75 70 77 81 76 36 30 31 36 39 44 53 56 56 55 57 60 60 63 64 63 66 64 66 68 68 74 73 74 72 72 75 78 75 73
Wind_Speed
8 9 10 16 4 3 14 15 10 16 15 13 14 5 8 11 5 13 20 24 24 18 16 13 13 13 14 13 16 14 14 16 15 16 16 16 17 16 17 17 17 17 17 18 18 17 16 15 15
9 13 21 3 5 7 13 20 6 14 17 18 6 24 23 23 20 19 21 24 20 17 16 13 14 14 15 14 15 14 15 16 16 16 16 16 17 17 17 17 16 15 16 16 18 16 15 14 12
8 7 8 3 4 7 10 19 14 16 14 15 25 23 17 19 20 21 27 24 17 15 16 16 14 15 16 15 13 13 14 15 16 16 15 16 16 16 18 16 16 15 15 14 15 14 14 12 12
11 12 4 6 12 17 16 15 15 15 18 16 18 17 22 28 28 28 31 17 18 16 19 17 16 14 16 14 13 13 14 16 15 16 15 16 15 16 16 15 15 15 16 15 13 12 12 11 13
20 5 4 5 13 10 14 15 19 7 17 17 20 21 22 29 32 28 25 28 19 21 18 17 19 16 16 15 15 15 15 15 16 15 15 15 15 14 14 14 14 14 15 14 13 12 11 10 11
5 2 2 4 16 14 17 13 6 21 11 9 20 19 19 23 32 27 30 23 24 24 19 18 19 17 17 16 16 15 15 15 15 13 14 14 14 13 13 13 13 13 13 12 12 12 11 11 10
7 4 6 6 13 12 17 10 11 13 17 15 19 20 18 15 29 22 21 23 14 25 22 18 17 16 17 16 15 15 15 14 14 14 14 14 13 13 13 13 12 12 10 10 10 10 9 9 9
11 3 12 7 13 2 17 10 15 12 15 21 22 14 16 21 22 16 20 23 19 19 24 22 17 15 16 14 14 15 15 16 14 14 15 18 16 13 12 13 12 10 9 9 9 9 9 9 11
19 3 3 7 16 11 14 13 8 10 18 15 11 23 20 21 21 22 20 28 19 19 26 20 23 17 17 15 14 14 15 16 14 14 17 18 17 13 12 12 12 10 9 8 7 8 7 8 10
5 1 3 10 12 6 10 12 13 13 10 16 15 24 23 21 20 20 16 14 17 19 13 15 15 23 17 14 15 13 13 15 8 8 10 7 12 14 12 12 11 10 9 7 8 5 4 5 6
5 7 13 7 2 14 12 6 12 16 14 18 11 21 18 16 20 15 18 18 21 14 7 19 14 17 16 14 18 16 16 14 8 7 4 12 14 11 11 16 13 12 9 8 5 3 4 9 10
6 10 10 2 11 5 8 9 15 12 14 26 22 20 16 14 13 17 17 26 23 24 17 12 16 16 16 13 16 16 16 13 11 9 8 8 13 11 8 14 9 11 7 8 9 4 3 2 2
18 6 6 4 5 5 6 8 4 11 12 18 20 20 16 10 11 23 17 27 23 28 20 23 20 13 16 13 12 17 16 15 14 15 14 5 4 5 3 3 11 13 10 7 7 10 8 9 7
14 9 7 3 8 10 2 6 10 12 16 19 17 19 14 10 13 19 19 17 19 21 22 21 16 12 14 7 16 9 10 13 11 15 10 0 6 4 5 8 8 9 13 11 5 6 9 9 7
13 9 7 4 2 7 19 12 10 13 16 18 18 17 16 13 2 20 15 16 15 24 24 20 19 13 9 7 10 16 14 9 13 8 7 1 1 6 3 10 12 9 2 1 1 5 5 10 12
10 9 3 2 3 2 10 9 6 15 14 14 18 13 18 11 21 13 17 18 16 19 19 19 20 18 14 10 10 3 7 8 6 10 5 2 2 2 8 1 6 5 6 4 11 9 8 9 10
7 6 6 3 10 4 3 2 18 19 14 14 17 18 14 19 8 19 11 21 19 17 15 13 19 17 12 9 6 12 6 6 10 8 10 6 2 9 9 4 7 3 11 12 15 5 5 4 8
5 3 5 12 9 11 8 6 0 8 15 12 15 19 15 13 24 21 17 22 24 20 14 17 21 17 16 10 9 7 6 5 9 4 14 11 8 7 12 13 16 13 12 19 7 5 4 8 5
6 12 13 15 9 8 7 10 3 8 11 5 8 19 15 18 22 22 23 21 23 21 17 14 21 16 13 9 12 13 14 10 9 10 7 8 8 2 7 7 5 3 21 20 8 5 5 9 5
9 2 8 2 7 2 5 7 6 3 15 21 13 14 18 18 16 23 25 23 26 25 21 19 18 15 13 10 7 4 11 11 10 8 4 4 2 2 4 5 35 10 17 20 7 5 8 14 24
9 9 7 5 4 3 4 4 10 14 16 10 9 16 16 10 20 17 22 25 26 26 24 22 19 13 16 8 7 6 10 6 12 8 12 7 4 3 3 1 7 4 7 12 7 13 11 8 14
11 9 3 7 14 4 7 2 5 6 7 8 14 20 14 22 20 17 21 20 26 26 25 26 22 18 13 10 7 7 13 10 9 12 9 10 7 5 5 3 1 1 2 5 10 10 6 4 15
13 5 11 14 11 8 11 4 2 4 5 16 17 29 9 17 18 10 22 24 27 27 23 24 21 19 15 13 10 8 6 5 10 1 15 9 6 6 4 4 3 5 8 9 8 5 8 9 10
13 7 10 15 11 13 13 10 3 3 8 10 28 21 19 21 19 23 25 29 26 28 25 26 23 20 16 14 14 15 4 11 12 12 7 9 12 10 12 6 3 2 4 6 5 6 7 8 9
11 14 10 13 12 3 10 6 3 14 18 18 24 21 21 20 11 12 18 21 26 28 27 29 26 22 19 17 16 14 12 12 11 5 6 7 8 8 14 9 5 2 4 4 6 7 7 8 9
8 15 12 6 5 7 7 3 5 14 14 14 19 20 22 21 12 24 18 25 25 29 27 30 29 23 20 19 18 15 12 12 12 9 8 5 7 6 8 4 5 4 5 6 7 9 10 8 3
15 10 16 7 7 12 4 7 6 14 10 6 7 2 15 15 13 13 20 26 25 30 27 27 30 25 23 21 19 19 15 14 13 11 10 7 5 10 15 13 9 5 6 8 10 8 11 12 8
12 3 7 4 5 18 8 3 1 15 4 12 9 11 8 4 13 13 19 25 27 30 29 25 32 27 24 22 22 19 19 17 17 11 4 3 7 6 3 8 11 8 9 8 8 11 11 10 14
7 5 9 7 6 5 1 1 9 12 24 10 4 5 6 15 25 15 7 25 28 25 30 28 28 28 24 22 23 20 21 19 17 13 13 13 4 8 9 9 8 8 9 9 9 12 14 12 10
10 6 18 11 2 2 4 4 11 9 4 10 5 5 6 8 6 10 18 10 26 24 28 28 29 28 25 24 21 22 21 21 21 18 13 10 10 9 10 11 8 8 9 9 10 11 12 12 13
Wind_Direction
246 264 266 38 302 173 98 86 43 116 111 101 134 138 141 180 50 108 127 130 133 132 123 117 112 107 112 111 109 114 108 106 105 104 100 99 100 99 98 96 95 96 96 99 102 101 100 103 103
250 273 41 153 245 117 111 98 81 75 80 105 64 74 75 83 97 123 132 142 139 142 134 122 115 114 119 115 114 110 108 110 106 103 103 99 100 101 100 97 92 94 96 97 100 99 98 101 109
248 220 120 201 242 110 103 97 95 85 56 63 81 87 97 115 119 128 132 139 141 137 123 120 118 121 123 115 111 114 114 111 104 102 100 99 103 105 97 95 91 95 102 106 98 100 103 104 108
241 212 218 211 115 100 109 100 119 118 93 91 98 87 103 111 118 128 117 140 136 124 122 122 122 124 121 119 121 123 121 114 111 106 104 107 104 103 100 98 93 90 94 104 104 105 108 104 113
245 31 348 96 104 101 93 86 83 39 70 115 102 95 119 115 122 127 128 149 160 125 122 126 126 127 126 124 127 122 115 110 107 106 104 106 110 109 105 103 99 93 98 104 106 106 111 111 116
57 251 302 35 104 92 85 107 164 115 101 121 100 102 109 124 130 128 142 145 140 137 126 130 132 134 128 126 125 121 119 118 115 112 111 113 117 117 114 110 103 100 103 112 106 106 104 104 115
76 271 272 240 102 91 95 85 64 136 156 123 127 114 128 129 124 147 148 135 127 137 129 132 133 130 127 125 123 122 121 125 123 127 125 122 123 123 123 120 113 110 111 115 116 107 109 107 105
146 240 323 106 100 142 119 113 64 107 126 125 130 134 138 139 138 155 127 149 149 157 129 135 135 135 129 124 124 126 127 128 133 134 132 124 116 122 129 127 127 129 126 122 119 116 117 113 117
114 87 302 4 144 133 118 89 98 96 134 64 336 136 146 149 145 128 139 142 121 123 141 134 140 139 133 131 134 138 131 123 135 146 147 139 128 119 121 153 138 138 136 129 129 137 135 127 140
62 276 197 260 351 53 90 121 136 139 106 149 157 132 137 144 151 159 138 141 126 112 151 149 143 139 147 137 139 141 143 131 147 166 145 160 159 135 149 146 141 141 140 134 141 161 190 213 221
207 154 221 249 157 232 115 138 138 142 137 115 109 130 143 163 136 164 149 143 117 119 210 162 123 124 135 158 158 160 144 145 175 186 127 132 111 149 146 138 146 152 153 172 200 219 253 255 249
268 114 184 157 181 338 127 73 76 22 143 150 151 138 151 172 180 151 150 125 133 137 137 145 120 154 144 183 186 179 173 157 167 121 103 147 94 152 203 205 176 188 193 202 224 173 155 122 139
5 99 121 82 1 31 4 116 22 104 114 125 132 143 164 158 176 125 146 135 142 145 152 126 125 141 153 149 187 169 171 164 140 125 103 190 175 110 124 161 194 219 199 180 195 183 163 169 136
207 100 105 55 357 112 216 334 123 123 135 134 147 150 168 202 142 141 136 138 140 139 127 125 126 134 146 159 163 145 124 161 154 150 162 337 108 170 164 194 201 194 229 211 155 175 193 194 127
111 130 117 116 354 69 88 288 151 142 147 148 160 164 148 133 4 156 141 140 155 133 136 134 143 143 148 144 147 137 184 145 131 108 125 50 50 170 226 237 226 238 273 297 35 195 257 152 136
168 137 131 237 180 37 109 283 195 165 154 166 150 146 149 104 170 136 153 152 151 139 134 154 146 150 150 170 190 250 163 150 162 155 151 157 203 195 268 201 17 48 191 262 195 209 219 161 160
19 53 318 221 184 123 219 322 140 268 164 178 152 153 149 167 139 149 173 152 152 134 139 162 147 156 157 175 177 131 201 107 137 173 154 139 171 255 272 359 35 285 280 284 276 213 186 182 167
157 139 28 241 189 202 210 213 110 235 310 171 176 147 155 157 160 164 167 144 134 142 155 159 151 149 159 161 145 95 161 247 170 141 154 153 197 246 298 5 72 141 257 300 294 100 157 199 242
163 183 146 208 138 183 226 246 229 314 303 180 251 147 165 161 158 166 169 155 138 149 161 139 144 153 154 177 159 159 187 227 159 149 139 117 231 277 357 66 29 123 215 239 82 14 345 309 76
253 232 113 153 115 177 150 236 146 119 270 265 222 185 174 157 165 158 158 163 154 152 165 147 150 162 175 187 162 190 214 217 188 160 165 184 257 326 62 356 145 211 273 288 50 350 8 7 34
259 255 143 142 338 138 146 227 223 210 222 285 228 226 192 158 159 162 168 167 156 156 159 166 160 177 195 198 197 203 173 224 158 179 187 194 207 243 249 102 98 217 66 295 16 32 20 326 357
246 68 343 175 191 223 186 290 238 216 175 285 262 233 176 164 183 172 166 172 162 159 165 164 165 180 200 226 213 198 208 228 171 218 190 178 194 255 295 300 24 335 85 311 31 36 19 17 100
281 182 244 300 272 156 190 228 248 347 198 165 263 260 210 225 169 182 168 169 160 158 167 164 174 185 199 212 213 192 223 353 273 278 159 156 207 222 237 248 306 323 345 9 5 349 341 345 353
301 262 245 254 237 240 201 212 186 196 238 185 217 199 195 220 198 183 170 168 159 160 169 165 172 189 199 201 204 192 155 170 257 210 180 197 215 213 205 212 192 269 312 325 344 348 337 341 340
236 262 261 243 238 249 126 221 207 218 210 212 223 197 211 222 165 185 168 165 164 164 168 161 168 175 190 198 198 208 198 203 226 227 225 263 279 327 250 200 198 243 285 312 316 317 321 324 331
229 263 260 307 265 313 224 14 335 220 244 193 190 211 198 217 194 191 169 164 170 164 167 163 167 172 190 204 197 211 220 218 223 230 251 259 298 50 127 207 227 240 269 278 296 310 310 318 314
263 242 329 138 257 256 120 64 347 282 255 154 204 230 196 214 217 211 171 167 169 165 168 163 163 172 184 203 204 208 216 223 232 233 248 231 230 280 270 288 268 277 276 289 288 296 298 300 309
301 66 277 318 252 269 92 81 274 277 13 293 178 194 214 292 285 215 176 169 170 166 166 167 163 172 186 200 196 204 211 219 241 250 220 250 183 284 270 232 273 287 288 274 284 287 294 302 275
9 20 328 313 299 286 82 253 168 252 175 204 155 211 146 164 247 231 225 175 166 177 166 170 169 174 184 196 194 203 204 218 229 233 210 234 213 239 247 266 276 283 287 282 285 285 279 291 294
127 149 277 287 34 34 316 265 346 311 96 121 84 61 93 73 29 330 336 267 167 176 168 173 176 172 183 189 191 194 203 211 217 224 234 228 238 229 244 254 262 263 274 283 281 280 274 283 281